This is the latest recevied weather packets stored in our database for station/object DB5ZQ. If no packets are shown the sender has not sent any weather packets the latest 10 day(s).
| Time | Temp. | Humidity | Pressure | Rain* | Wind** | Luminosity | Snow |
|---|---|---|---|---|---|---|---|
| 1777628535 | 19.44° C | 33% | 1023.7 hPa | 0 mm | - | - | - |
| 1777628235 | 19.44° C | 33% | 1023.6 hPa | 0 mm | - | - | - |
| 1777627935 | 18.89° C | 34% | 1023.8 hPa | 0 mm | - | - | - |
| 1777627634 | 18.89° C | 33% | 1023.8 hPa | 0 mm | - | - | - |
| 1777627334 | 18.89° C | 34% | 1023.9 hPa | 0 mm | - | - | - |
| 1777627034 | 18.33° C | 34% | 1024 hPa | 0 mm | - | - | - |
| 1777626734 | 18.33° C | 35% | 1024 hPa | 0 mm | - | - | - |
| 1777626433 | 17.78° C | 36% | 1024 hPa | 0 mm | - | - | - |
| 1777626133 | 17.78° C | 36% | 1024.1 hPa | 0 mm | - | - | - |
| 1777625833 | 17.78° C | 36% | 1024.1 hPa | 0 mm | - | - | - |
| 1777625532 | 17.78° C | 36% | 1024.1 hPa | 0 mm | - | - | - |
| 1777625232 | 17.22° C | 37% | 1024.2 hPa | 0 mm | - | - | - |
| 1777624932 | 17.22° C | 37% | 1024.2 hPa | 0 mm | - | - | - |
| 1777624632 | 17.22° C | 38% | 1024.2 hPa | 0 mm | - | - | - |
| 1777624331 | 16.67° C | 38% | 1024.2 hPa | 0 mm | - | - | - |
| 1777624031 | 16.67° C | 38% | 1024.2 hPa | 0 mm | - | - | - |
| 1777623731 | 16.67° C | 39% | 1024.4 hPa | 0 mm | - | - | - |
| 1777623430 | 16.67° C | 41% | 1024.3 hPa | 0 mm | - | - | - |
| 1777623130 | 16.67° C | 41% | 1024.3 hPa | 0 mm | - | - | - |
| 1777622830 | 16.11° C | 41% | 1024.4 hPa | 0 mm | - | - | - |
| 1777622530 | 16.11° C | 42% | 1024.3 hPa | 0 mm | - | - | - |
| 1777622229 | 15.56° C | 42% | 1024.3 hPa | 0 mm | - | - | - |
| 1777621929 | 16.11° C | 42% | 1024.3 hPa | 0 mm | - | - | - |
| 1777621629 | 15.56° C | 42% | 1024.3 hPa | 0 mm | - | - | - |
| 1777621328 | 15.56° C | 42% | 1024.4 hPa | 0 mm | - | - | - |
* Rain latest hour (hover to see other rain measurements)
** Current wind speed in m/s (hover to see current wind gust speed)